ONEWEB-0143 (47289 NORAD) Tracking and Keplerian Element Data
This shows tracking and keplerian element data for the satellite.
Feedback or suggestion? Click here.
Element | Value |
Catalog | 47289 |
Name | ONEWEB-0143 |
Epoch Orbit | 1698 |
Epoch Day | 106.25002315 |
Epoch Year | 2021 |
RAAN | 5.8978 |
Inclination | 87.9642 |
Eccentricity | 0.0001935 |
Argument of Perigee | 90.1687 |
Mean Anonmoly | 317.6998 |
Mean Motion | 13.27890525 |
Decay Rate | -0.00012602 |
L1 | 1 47289U 20100AH 21106.25002315 -.00012602 00000-0 -27938-1 0 9994 |
L2 | 2 47289 87.9642 5.8978 0001935 90.1687 317.6998 13.27890525 16983 |
Live tracking and technical data element details for ONEWEB-0143 (NORAD 47289). ONEWEB-0143 can be tracked NOW for your location showing map with azimuth and elevation plus other details from your city location.
Track the satellite on the map from your city or location and see movement details for azimuth, elevation, latitude, longitude, range, height, and movement on the map or in text.
IsCatalogInMostPopularTable: catalog: 47289, numindb: 41
Update: records affected: 1
GetName: 47289 ONEWEB-0143
Hit Count: updated at: Fri, 16 Apr 2021 11:18:09 GMT